• In Russia
  • List of Countries
  • For 7 days
  • Water Temperature
  • Satellite Maps
  • Weather Map
  • Weather Widgets
  • user-avatar
    Login

    Hourly Weather Kalgoorlie

    Today, 25 April, Thursday

    Time Temperature Precipitation Wind Pressure Humidity
    00:00 +19°C° 0 mm 5 mps 737 mmHg 52%
    01:00 +17°C° 0 mm 5 mps 737 mmHg 55%
    02:00 +17°C° 0 mm 4 mps 737 mmHg 59%
    03:00 +17°C° 0 mm 4 mps 737 mmHg 64%
    04:00 +15°C° 0 mm 4 mps 737 mmHg 69%
    05:00 +15°C° 0 mm 4 mps 737 mmHg 74%
    06:00 +15°C° 0 mm 4 mps 737 mmHg 73%
    07:00 +17°C° 0 mm 4 mps 738 mmHg 73%
    08:00 +16°C° 0 mm 5 mps 738 mmHg 70%
    09:00 +19°C° 0 mm 5 mps 738 mmHg 62%
    10:00 +21°C° 0 mm 5 mps 737 mmHg 53%
    11:00 +22°C° 0 mm 5 mps 737 mmHg 45%
    12:00 +23°C° 0 mm 5 mps 737 mmHg 41%
    13:00 +25°C° 0 mm 5 mps 736 mmHg 36%
    14:00 +26°C° 0 mm 5 mps 736 mmHg 34%
    15:00 +25°C° 0 mm 5 mps 736 mmHg 34%
    16:00 +25°C° 0 mm 5 mps 736 mmHg 34%
    17:00 +25°C° 0 mm 5 mps 736 mmHg 34%
    18:00 +23°C° 0 mm 5 mps 736 mmHg 36%
    19:00 +22°C° 0 mm 5 mps 737 mmHg 39%
    20:00 +21°C° 0 mm 5 mps 737 mmHg 41%
    21:00 +20°C° 0 mm 5 mps 737 mmHg 44%
    22:00 +19°C° 0 mm 5 mps 737 mmHg 47%
    23:00 +19°C° 0 mm 5 mps 737 mmHg 50%

    Tomorrow, 26 April, Friday

    Time Temperature Precipitation Wind Pressure Humidity
    00:00 +17°C° 0 mm 5 mps 737 mmHg 53%
    01:00 +17°C° 0 mm 5 mps 737 mmHg 57%
    02:00 +16°C° 0 mm 5 mps 738 mmHg 61%
    03:00 +15°C° 0 mm 5 mps 738 mmHg 67%
    04:00 +15°C° 0 mm 5 mps 738 mmHg 73%
    05:00 +14°C° 0 mm 5 mps 738 mmHg 79%
    06:00 +14°C° 0 mm 6 mps 738 mmHg 78%
    07:00 +14°C° 0 mm 6 mps 738 mmHg 78%
    08:00 +15°C° 0 mm 6 mps 739 mmHg 77%
    09:00 +16°C° 0 mm 6 mps 739 mmHg 66%
    10:00 +19°C° 0 mm 6 mps 739 mmHg 55%
    11:00 +21°C° 0 mm 6 mps 739 mmHg 44%
    12:00 +22°C° 0 mm 6 mps 738 mmHg 40%
    13:00 +23°C° 0 mm 6 mps 738 mmHg 35%
    14:00 +24°C° 0 mm 6 mps 737 mmHg 31%
    15:00 +23°C° 0 mm 6 mps 737 mmHg 32%
    16:00 +22°C° 0 mm 6 mps 737 mmHg 34%
    17:00 +22°C° 0 mm 6 mps 737 mmHg 35%
    18:00 +21°C° 0 mm 5 mps 737 mmHg 38%
    19:00 +20°C° 0 mm 5 mps 738 mmHg 42%
    20:00 +19°C° 0 mm 5 mps 738 mmHg 45%
    21:00 +17°C° 0 mm 5 mps 738 mmHg 48%
    22:00 +17°C° 0 mm 5 mps 738 mmHg 51%
    23:00 +16°C° 0 mm 6 mps 738 mmHg 55%

    Day after tomorrow, 27 April, Saturday

    Time Temperature Precipitation Wind Pressure Humidity
    00:00 +15°C° 0 mm 5 mps 738 mmHg 59%
    01:00 +15°C° 0 mm 5 mps 738 mmHg 64%
    02:00 +14°C° 0 mm 5 mps 738 mmHg 69%
    03:00 +14°C° 0 mm 5 mps 738 mmHg 72%
    04:00 +13°C° 0 mm 4 mps 738 mmHg 75%
    05:00 +13°C° 0 mm 4 mps 738 mmHg 78%
    06:00 +13°C° 0 mm 4 mps 738 mmHg 75%
    07:00 +14°C° 0 mm 5 mps 739 mmHg 73%
    08:00 +14°C° 0 mm 5 mps 739 mmHg 70%
    09:00 +16°C° 0 mm 5 mps 739 mmHg 61%
    10:00 +19°C° 0 mm 5 mps 739 mmHg 53%
    11:00 +21°C° 0 mm 5 mps 739 mmHg 44%
    12:00 +22°C° 0 mm 5 mps 738 mmHg 40%
    13:00 +22°C° 0 mm 5 mps 737 mmHg 35%
    14:00 +23°C° 0 mm 4 mps 737 mmHg 31%
    15:00 +23°C° 0 mm 4 mps 737 mmHg 31%
    16:00 +23°C° 0 mm 4 mps 737 mmHg 31%
    17:00 +23°C° 0 mm 4 mps 737 mmHg 31%
    18:00 +22°C° 0 mm 4 mps 737 mmHg 33%
    19:00 +21°C° 0 mm 4 mps 737 mmHg 36%
    20:00 +20°C° 0 mm 4 mps 737 mmHg 39%
    21:00 +19°C° 0 mm 4 mps 737 mmHg 41%
    22:00 +19°C° 0 mm 4 mps 737 mmHg 44%
    23:00 +18°C° 0 mm 4 mps 737 mmHg 46%

    28 April, Sunday

    Time Temperature Precipitation Wind Pressure Humidity
    00:00 +18°C° 0 mm 4 mps 737 mmHg 49%
    01:00 +17°C° 0 mm 4 mps 737 mmHg 51%
    02:00 +15°C° 0 mm 4 mps 737 mmHg 53%
    03:00 +15°C° 0 mm 4 mps 736 mmHg 56%
    04:00 +15°C° 0 mm 4 mps 736 mmHg 58%
    05:00 +14°C° 0 mm 4 mps 736 mmHg 61%
    06:00 +15°C° 0 mm 4 mps 736 mmHg 57%
    07:00 +16°C° 0 mm 5 mps 737 mmHg 54%
    08:00 +17°C° 0 mm 6 mps 737 mmHg 51%
    09:00 +19°C° 0 mm 6 mps 737 mmHg 44%
    10:00 +21°C° 0 mm 6 mps 737 mmHg 37%
    11:00 +23°C° 0 mm 6 mps 736 mmHg 30%
    12:00 +24°C° 0 mm 6 mps 735 mmHg 27%
    13:00 +26°C° 0 mm 5 mps 734 mmHg 24%
    14:00 +27°C° 0 mm 5 mps 734 mmHg 21%
    15:00 +27°C° 0 mm 4 mps 734 mmHg 22%
    16:00 +26°C° 0 mm 3 mps 733 mmHg 23%
    17:00 +26°C° 0 mm 3 mps 733 mmHg 24%
    18:00 +25°C° 0 mm 3 mps 734 mmHg 25%
    19:00 +24°C° 0 mm 3 mps 734 mmHg 25%
    20:00 +22°C° 0 mm 3 mps 734 mmHg 26%
    21:00 +22°C° 0 mm 3 mps 734 mmHg 27%
    22:00 +21°C° 0 mm 3 mps 734 mmHg 29%
    23:00 +20°C° 0 mm 3 mps 734 mmHg 30%

    29 April, Monday

    Time Temperature Precipitation Wind Pressure Humidity
    00:00 +20°C° 0 mm 4 mps 734 mmHg 31%
    01:00 +19°C° 0 mm 4 mps 733 mmHg 33%
    02:00 +19°C° 0 mm 4 mps 733 mmHg 35%
    03:00 +19°C° 0 mm 4 mps 732 mmHg 35%
    04:00 +18°C° 0 mm 4 mps 732 mmHg 36%
    05:00 +18°C° 0 mm 4 mps 732 mmHg 37%
    06:00 +19°C° 0 mm 4 mps 732 mmHg 35%
    07:00 +19°C° 0 mm 5 mps 732 mmHg 33%
    08:00 +20°C° 0 mm 6 mps 733 mmHg 32%
    09:00 +22°C° 0 mm 6 mps 733 mmHg 28%
    10:00 +26°C° 0 mm 6 mps 732 mmHg 25%
    11:00 +28°C° 0 mm 7 mps 732 mmHg 21%
    12:00 +28°C° 0 mm 7 mps 731 mmHg 20%
    13:00 +29°C° 0 mm 7 mps 731 mmHg 20%
    14:00 +30°C° 0 mm 7 mps 730 mmHg 19%
    15:00 +29°C° 0 mm 6 mps 730 mmHg 20%
    16:00 +28°C° 0 mm 5 mps 730 mmHg 22%
    17:00 +27°C° 0 mm 4 mps 730 mmHg 23%
    18:00 +26°C° 0 mm 4 mps 731 mmHg 25%
    19:00 +25°C° 0 mm 4 mps 731 mmHg 27%
    20:00 +23°C° 0 mm 5 mps 732 mmHg 29%
    21:00 +21°C° 0 mm 6 mps 732 mmHg 42%
    22:00 +20°C° 0 mm 7 mps 732 mmHg 55%
    23:00 +17°C° 0 mm 8 mps 732 mmHg 68%

    30 April, Tuesday

    Time Temperature Precipitation Wind Pressure Humidity
    00:00 +16°C° 0 mm 8 mps 733 mmHg 70%
    01:00 +16°C° 0 mm 7 mps 733 mmHg 72%
    02:00 +16°C° 0 mm 7 mps 733 mmHg 74%
    03:00 +15°C° 0 mm 7 mps 734 mmHg 73%
    04:00 +15°C° 0 mm 7 mps 734 mmHg 73%
    05:00 +14°C° 0 mm 7 mps 734 mmHg 72%
    06:00 +14°C° 0 mm 7 mps 735 mmHg 70%
    07:00 +12°C° 0 mm 7 mps 735 mmHg 67%
    08:00 +12°C° 0 mm 7 mps 736 mmHg 65%
    09:00 +14°C° 0 mm 7 mps 736 mmHg 57%
    10:00 +16°C° 0 mm 7 mps 736 mmHg 50%
    11:00 +17°C° 0 mm 7 mps 736 mmHg 42%
    12:00 +19°C° 0 mm 6 mps 735 mmHg 39%
    13:00 +20°C° 0 mm 6 mps 735 mmHg 36%
    14:00 +21°C° 0 mm 6 mps 734 mmHg 33%
    15:00 +21°C° 0 mm 6 mps 734 mmHg 34%
    16:00 +20°C° 0 mm 5 mps 735 mmHg 34%
    17:00 +20°C° 0 mm 5 mps 735 mmHg 35%
    18:00 +19°C° 0 mm 5 mps 736 mmHg 37%
    19:00 +17°C° 0 mm 5 mps 736 mmHg 39%
    20:00 +17°C° 0 mm 5 mps 737 mmHg 41%
    21:00 +16°C° 0 mm 5 mps 737 mmHg 45%
    22:00 +15°C° 0 mm 6 mps 737 mmHg 48%
    23:00 +14°C° 0 mm 6 mps 738 mmHg 52%
    Show more